This is the latest recevied weather packets stored in our database for station/object N1IJV-10. If no packets are shown the sender has not sent any weather packets the latest 10 day(s).
| Time | Temp. | Humidity | Pressure | Rain* | Wind** | Luminosity | Snow |
|---|---|---|---|---|---|---|---|
| 1777381280 | 10° C | 85% | 1011.6 hPa | 0 mm | - | 48 W/m² | - |
| 1777380978 | 10° C | 85% | 1011.4 hPa | 0 mm | - | 45 W/m² | - |
| 1777380674 | 10° C | 86% | 1011 hPa | 0 mm | - | 35 W/m² | - |
| 1777380370 | 10° C | 88% | 1010.7 hPa | 0 mm | - | 30 W/m² | - |
| 1777380066 | 10° C | 87% | 1010.5 hPa | 0 mm | - | 23 W/m² | - |
| 1777379762 | 10° C | 88% | 1010.4 hPa | 0 mm | - | 21 W/m² | - |
| 1777379458 | 10° C | 87% | 1010.7 hPa | 0 mm | - | 20 W/m² | - |
| 1777379153 | 10° C | 87% | 1010.4 hPa | 0 mm | - | 14 W/m² | - |
| 1777378849 | 10° C | 87% | 1010 hPa | 0 mm | - | 18 W/m² | - |
| 1777378545 | 10° C | 87% | 1009.8 hPa | 0 mm | - | 21 W/m² | - |
| 1777378242 | 10° C | 88% | 1009.7 hPa | 0 mm | - | 22 W/m² | - |
| 1777377939 | 10° C | 88% | 1009.7 hPa | 0 mm | - | 16 W/m² | - |
| 1777377639 | 10° C | 89% | 1009.8 hPa | 0 mm | - | 14 W/m² | - |
| 1777377335 | 10° C | 89% | 1009.5 hPa | 0 mm | - | 11 W/m² | - |
| 1777377032 | 9.44° C | 91% | 1009.6 hPa | 0 mm | - | 8 W/m² | - |
| 1777376729 | 10° C | 91% | 1009.3 hPa | 0 mm | - | 6 W/m² | - |
| 1777376426 | 10° C | 91% | 1009.1 hPa | 0 mm | - | 9 W/m² | - |
| 1777376122 | 10° C | 91% | 1008.9 hPa | 0 mm | - | 8 W/m² | - |
| 1777375821 | 10° C | 90% | 1008.7 hPa | 0 mm | - | 4 W/m² | - |
| 1777375516 | 10° C | 89% | 1008.6 hPa | 0 mm | - | 3 W/m² | - |
| 1777375213 | 10° C | 89% | 1008.7 hPa | 0 mm | - | 2 W/m² | - |
| 1777374908 | 10° C | 88% | 1008.7 hPa | 0 mm | - | 1 W/m² | - |
| 1777374604 | 10.56° C | 88% | 1008.4 hPa | 0 mm | - | 0 W/m² | - |
| 1777374301 | 10.56° C | 88% | 1008.1 hPa | 0 mm | - | 0 W/m² | - |
| 1777373996 | 10.56° C | 87% | 1008.2 hPa | 0 mm | - | 0 W/m² | - |
* Rain latest hour (hover to see other rain measurements)
** Current wind speed in m/s (hover to see current wind gust speed)